Location: Mercogliano
(40.9167°N, 14.7333°E)
Time: 14:12:43
(UTC+00:00)

Cosmos 2263 Rocket - Pass Details

Date: 18 September 2020
Orbit: 822 x 850 km, 71.0° (Epoch: 29 October)

Event Time Altitude Azimuth Distance (km) Brightness Sun altitude
Rises 17:45:51 0° 204° (SSW) 3,341 5.5 -8.6°
Reaches altitude 10° 17:48:16 10° 205° (SSW) 2,413 4.8 -9.0°
Maximum altitude 17:53:48 82° 293° (WNW) 838 2.3 -10.1°
Drops below altitude 10° 17:59:24 10° 22° (NNE) 2,439 4.5 -11.1°
Sets 18:01:51 0° 23° (NNE) 3,380 5.2 -11.6°
